Weather History for Freeport, IL

Change the Weather History Date:

Sunday, May 18, 2014

  Actual Average Record
Temperature  
Mean Temperature 54 °F -  
Max Temperature 66 °F 72 °F 90 °F (1987)
Min Temperature 43 °F 49 °F 33 °F (2002)
Degree Days  
Heating Degree Days 10    
Growing Degree Days 4 (Base 50)    
Moisture  
Dew Point 37 °F    
Average Humidity 53    
Maximum Humidity 74    
Minimum Humidity 27    
Precipitation  
Precipitation 0.00 in - - ()
Sea Level Pressure  
Sea Level Pressure 30.19 in    
Wind  
Wind Speed 11 mph (SSW)    
Max Wind Speed 15 mph    
Max Gust Speed 21 mph    
Visibility 10 miles    
Events      
Averages and records for this station are not official NWS values.
T = Trace of Precipitation, MM = Missing Value Source: NWS Daily Summary

Daily Weather History Graph

Daily Weather History Graph

Search for Another Location

Airport:

Trip Planner

Search our weather history database for the weather conditions in past years. The results will help you decide how hot, cold, wet, or windy it might be!

Date:

Astronomy

May. 18, 2014 Rise Set
Actual Time 5:34 AM CDT 8:15 PM CDT
Civil Twilight 5:01 AM CDT 8:48 PM CDT
Nautical Twilight 4:21 AM CDT 9:29 PM CDT
Astronomical Twilight 3:34 AM CDT 10:15 PM CDT
Moon No Moon Rise 9:23 AM CDT (5/18)
Length of Visible Light 15h 46m
Length of Day
14h 41m
Waning Gibbous, 81% of the Moon is Illuminated
May 18
Waning Gibbous
May 21
Last Quarter
May 28
New
Jun 5
First Quarter
Jun 12
Full

Hourly Weather History & Observations

Time (CDT) Temp. Windchill Dew Point Humidity Pressure Visibility Wind Dir Wind Speed Gust Speed Precip Events Conditions
12:15 AM 45.7 °F 40.2 °F 33.1 °F 61% 30.17 in 10.0 mi SSW 11.5 mph - N/A   Clear
12:35 AM 44.8 °F 39.4 °F 33.3 °F 64% 30.18 in 10.0 mi SSW 10.4 mph - N/A   Clear
12:55 AM 45.7 °F 40.2 °F 33.8 °F 63% 30.18 in 10.0 mi SSW 11.5 mph - N/A   Scattered Clouds
1:15 AM 46.2 °F 41.2 °F 33.8 °F 62% 30.18 in 10.0 mi SSW 10.4 mph - N/A   Overcast
1:35 AM 47.8 °F - 34.3 °F 60% 30.18 in 10.0 mi SSW 11.5 mph - N/A   Overcast
1:55 AM 48.2 °F - 33.8 °F 58% 30.18 in 10.0 mi SSW 12.7 mph - N/A   Overcast
2:15 AM 48.2 °F - 33.4 °F 57% 30.18 in 10.0 mi SW 12.7 mph - N/A   Overcast
2:35 AM 45.7 °F 39.8 °F 33.1 °F 61% 30.18 in 10.0 mi SW 12.7 mph - N/A   Scattered Clouds
2:55 AM 45.7 °F 39.5 °F 32.9 °F 61% 30.18 in 10.0 mi SSW 13.8 mph - N/A   Scattered Clouds
3:15 AM 45.9 °F 40.4 °F 32.7 °F 60% 30.19 in 10.0 mi SSW 11.5 mph - N/A   Scattered Clouds
3:35 AM 45.5 °F 39.2 °F 32.7 °F 61% 30.19 in 10.0 mi SSW 13.8 mph 20.7 mph N/A   Scattered Clouds
3:55 AM 43.9 °F 37.5 °F 32.9 °F 65% 30.19 in 10.0 mi SW 12.7 mph - N/A   Scattered Clouds
4:15 AM 44.4 °F 38.2 °F 32.9 °F 64% 30.19 in 10.0 mi SSW 12.7 mph - N/A   Scattered Clouds
4:35 AM 44.4 °F 38.6 °F 32.9 °F 64% 30.19 in 10.0 mi SSW 11.5 mph - N/A   Clear
4:55 AM 43.2 °F 37.0 °F 32.9 °F 67% 30.19 in 10.0 mi SW 11.5 mph - N/A   Clear
5:15 AM 43.2 °F 36.6 °F 32.9 °F 67% 30.20 in 10.0 mi SW 12.7 mph - N/A   Clear
5:35 AM 43.2 °F 36.2 °F 33.1 °F 68% 30.20 in 10.0 mi SW 13.8 mph - N/A   Clear
5:55 AM 43.2 °F 36.2 °F 32.9 °F 67% 30.20 in 10.0 mi SW 13.8 mph 18.4 mph N/A   Clear
6:15 AM 43.7 °F 37.3 °F 33.4 °F 67% 30.20 in 10.0 mi SW 12.7 mph - N/A   Clear
6:35 AM 44.6 °F 38.4 °F 33.8 °F 66% 30.21 in 10.0 mi SW 12.7 mph - N/A   Clear
6:55 AM 45.7 °F 39.8 °F 34.9 °F 66% 30.21 in 10.0 mi SW 12.7 mph - N/A   Clear
7:15 AM 48.2 °F - 36.9 °F 65% 30.21 in 10.0 mi SW 11.5 mph - N/A   Clear
7:35 AM 48.6 °F - 37.0 °F 64% 30.21 in 10.0 mi SW 10.4 mph - N/A   Clear
7:55 AM 50.9 °F - 39.0 °F 64% 30.21 in 10.0 mi SW 15.0 mph 18.4 mph N/A   Clear
8:15 AM 50.9 °F - 38.8 °F 63% 30.21 in 10.0 mi SW 11.5 mph - N/A   Clear
8:35 AM 50.9 °F - 37.8 °F 61% 30.22 in 10.0 mi WSW 12.7 mph 16.1 mph N/A   Clear
8:55 AM 52.0 °F - 39.7 °F 63% 30.23 in 10.0 mi WSW 10.4 mph - N/A   Clear
9:15 AM 54.7 °F - 42.1 °F 62% 30.23 in 10.0 mi SW 12.7 mph - N/A   Clear
9:35 AM 55.8 °F - 41.5 °F 59% 30.23 in 10.0 mi SW 12.7 mph - N/A   Clear
9:55 AM 55.8 °F - 41.0 °F 58% 30.23 in 10.0 mi SW 13.8 mph 19.6 mph N/A   Clear
10:15 AM 58.3 °F - 41.4 °F 53% 30.24 in 10.0 mi WSW 11.5 mph 16.1 mph N/A   Clear
10:35 AM 58.3 °F - 41.2 °F 53% 30.23 in 10.0 mi WSW 9.2 mph - N/A   Clear
10:55 AM 60.1 °F - 41.7 °F 51% 30.24 in 10.0 mi WSW 11.5 mph 18.4 mph N/A   Clear
11:15 AM 60.8 °F - 41.7 °F 49% 30.23 in 10.0 mi WSW 8.1 mph - N/A   Clear
11:35 AM 61.3 °F - 41.9 °F 49% 30.23 in 10.0 mi WSW 12.7 mph 16.1 mph N/A   Clear
11:55 AM 62.2 °F - 41.7 °F 47% 30.23 in 10.0 mi WSW 11.5 mph 18.4 mph N/A   Clear
12:15 PM 62.2 °F - 41.0 °F 46% 30.23 in 10.0 mi West 12.7 mph - N/A   Clear
12:35 PM 63.5 °F - 41.0 °F 44% 30.22 in 10.0 mi SSW 12.7 mph 17.3 mph N/A   Clear
12:55 PM 63.7 °F - 40.3 °F 42% 30.21 in 10.0 mi SW 8.1 mph - N/A   Clear
1:15 PM 64.2 °F - 38.3 °F 38% 30.21 in 10.0 mi WSW 4.6 mph - N/A   Clear
1:35 PM 64.0 °F - 36.1 °F 36% 30.20 in 10.0 mi WSW 8.1 mph 17.3 mph N/A   Clear
1:55 PM 64.8 °F - 35.8 °F 34% 30.20 in 10.0 mi WSW 10.4 mph 16.1 mph N/A   Clear
2:15 PM 66.2 °F - 33.8 °F 30% 30.20 in 10.0 mi SW 12.7 mph 16.1 mph N/A   Clear
2:35 PM 66.2 °F - 34.0 °F 30% 30.20 in 10.0 mi SSW 11.5 mph 18.4 mph N/A   Clear
2:55 PM 65.3 °F - 33.6 °F 31% 30.19 in 10.0 mi SW 10.4 mph - N/A   Clear
3:15 PM 66.2 °F - 31.1 °F 27% 30.19 in 10.0 mi SSW 5.8 mph - N/A   Clear
3:35 PM 66.2 °F - 31.5 °F 27% 30.18 in 10.0 mi West 9.2 mph - N/A   Scattered Clouds
3:55 PM 65.7 °F - 33.4 °F 30% 30.18 in 10.0 mi South 4.6 mph - N/A   Scattered Clouds
4:15 PM 64.8 °F - 34.3 °F 32% 30.17 in 10.0 mi SSW 9.2 mph - N/A   Scattered Clouds
4:35 PM 66.2 °F - 30.9 °F 27% 30.17 in 10.0 mi South 6.9 mph - N/A   Clear
4:55 PM 66.2 °F - 33.6 °F 30% 30.17 in 10.0 mi SSW 9.2 mph - N/A   Clear
5:15 PM 65.5 °F - 34.3 °F 31% 30.17 in 10.0 mi South 6.9 mph - N/A   Clear
5:35 PM 66.0 °F - 34.0 °F 30% 30.17 in 10.0 mi South 8.1 mph - N/A   Clear
5:55 PM 64.4 °F - 32.7 °F 31% 30.17 in 10.0 mi SSW 8.1 mph - N/A   Scattered Clouds
6:15 PM 63.5 °F - 33.8 °F 33% 30.16 in 10.0 mi SSW 9.2 mph - N/A   Scattered Clouds
6:35 PM 62.1 °F - 37.0 °F 39% 30.16 in 10.0 mi SSW 8.1 mph - N/A   Clear
6:55 PM 62.1 °F - 36.0 °F 38% 30.16 in 10.0 mi SSW 8.1 mph - N/A   Clear
7:15 PM 61.7 °F - 37.0 °F 40% 30.16 in 10.0 mi South 9.2 mph - N/A   Clear
7:35 PM 60.8 °F - 36.3 °F 40% 30.16 in 10.0 mi South 8.1 mph - N/A   Clear
7:55 PM 58.3 °F - 38.5 °F 48% 30.16 in 10.0 mi South 8.1 mph - N/A   Clear
8:15 PM 55.8 °F - 38.7 °F 53% 30.16 in 10.0 mi South 6.9 mph - N/A   Clear
8:35 PM 55.8 °F - 41.4 °F 58% 30.16 in 10.0 mi South 6.9 mph - N/A   Clear
8:55 PM 55.8 °F - 42.6 °F 61% 30.16 in 10.0 mi South 6.9 mph - N/A   Clear
9:15 PM 53.2 °F - 41.2 °F 64% 30.17 in 10.0 mi South 8.1 mph - N/A   Clear
9:35 PM 51.3 °F - 40.8 °F 67% 30.17 in 10.0 mi South 8.1 mph - N/A   Clear
9:55 PM 53.2 °F - 41.2 °F 64% 30.17 in 10.0 mi South 8.1 mph - N/A   Clear
10:15 PM 52.2 °F - 40.5 °F 64% 30.18 in 10.0 mi South 9.2 mph - N/A   Clear
10:35 PM 52.0 °F - 40.6 °F 65% 30.18 in 10.0 mi South 8.1 mph - N/A   Clear
10:55 PM 50.9 °F - 41.4 °F 70% 30.17 in 10.0 mi South 9.2 mph - N/A   Clear
11:15 PM 50.9 °F - 41.5 °F 70% 30.18 in 10.0 mi South 8.1 mph - N/A   Clear
11:35 PM 50.9 °F - 41.0 °F 69% 30.18 in 10.0 mi South 9.2 mph - N/A   Clear
11:55 PM 50.9 °F - 43.0 °F 74% 30.19 in 10.0 mi South 9.2 mph - N/A   Clear